Meteo pe oră la Bolshie Knyazikovcy

Astăzi, 19 Mai, Miercuri

Timp Temperatura Precipitaţii Vânt Presiune Umiditate
00:00 +10°C° 0 mm 4 m/s 739 mmHg 93%
01:00 +10°C° 0 mm 4 m/s 739 mmHg 93%
02:00 +10°C° 0 mm 4 m/s 738 mmHg 93%
03:00 +8°C° 0.1 mm 4 m/s 738 mmHg 93%
04:00 +8°C° 0.1 mm 4 m/s 738 mmHg 93%
05:00 +8°C° 0.1 mm 4 m/s 738 mmHg 93%
06:00 +8°C° 0.1 mm 4 m/s 739 mmHg 92%
07:00 +8°C° 0.1 mm 4 m/s 739 mmHg 91%
08:00 +8°C° 0.1 mm 5 m/s 739 mmHg 90%
09:00 +8°C° 0 mm 5 m/s 740 mmHg 88%
10:00 +9°C° 0 mm 5 m/s 740 mmHg 87%
11:00 +9°C° 0 mm 5 m/s 740 mmHg 85%
12:00 +9°C° 0 mm 5 m/s 741 mmHg 84%
13:00 +10°C° 0 mm 5 m/s 741 mmHg 82%
14:00 +10°C° 0 mm 5 m/s 741 mmHg 81%
15:00 +12°C° 0 mm 4 m/s 741 mmHg 79%
16:00 +12°C° 0 mm 3 m/s 742 mmHg 78%
17:00 +14°C° 0 mm 2 m/s 742 mmHg 77%
18:00 +13°C° 0.1 mm 2 m/s 742 mmHg 80%
19:00 +12°C° 0.1 mm 2 m/s 742 mmHg 84%
20:00 +12°C° 0.1 mm 2 m/s 743 mmHg 87%
21:00 +10°C° 0 mm 2 m/s 743 mmHg 90%
22:00 +10°C° 0 mm 2 m/s 743 mmHg 92%
23:00 +9°C° 0 mm 3 m/s 743 mmHg 94%

Mâine, 20 Mai, Joi

Timp Temperatura Precipitaţii Vânt Presiune Umiditate
00:00 +9°C° 0 mm 3 m/s 743 mmHg 95%
01:00 +8°C° 0 mm 3 m/s 743 mmHg 95%
02:00 +8°C° 0 mm 3 m/s 743 mmHg 96%
03:00 +8°C° 0 mm 3 m/s 744 mmHg 96%
04:00 +7°C° 0 mm 3 m/s 744 mmHg 96%
05:00 +7°C° 0 mm 3 m/s 744 mmHg 96%
06:00 +8°C° 0 mm 3 m/s 744 mmHg 91%
07:00 +10°C° 0 mm 4 m/s 745 mmHg 85%
08:00 +11°C° 0 mm 4 m/s 745 mmHg 80%
09:00 +13°C° 0 mm 4 m/s 745 mmHg 74%
10:00 +14°C° 0 mm 5 m/s 745 mmHg 68%
11:00 +15°C° 0 mm 5 m/s 745 mmHg 62%
12:00 +16°C° 0 mm 5 m/s 745 mmHg 58%
13:00 +16°C° 0 mm 5 m/s 745 mmHg 54%
14:00 +17°C° 0 mm 5 m/s 745 mmHg 51%
15:00 +17°C° 0 mm 5 m/s 745 mmHg 54%
16:00 +16°C° 0 mm 5 m/s 745 mmHg 58%
17:00 +17°C° 0 mm 4 m/s 745 mmHg 62%
18:00 +14°C° 0 mm 4 m/s 746 mmHg 66%
19:00 +13°C° 0 mm 4 m/s 746 mmHg 70%
20:00 +12°C° 0 mm 4 m/s 747 mmHg 74%
21:00 +10°C° 0 mm 4 m/s 747 mmHg 79%
22:00 +9°C° 0 mm 3 m/s 747 mmHg 84%
23:00 +7°C° 0 mm 3 m/s 748 mmHg 90%

Poimâine, 21 Mai, Vineri

Timp Temperatura Precipitaţii Vânt Presiune Umiditate
00:00 +7°C° 0 mm 2 m/s 748 mmHg 91%
01:00 +6°C° 0 mm 2 m/s 748 mmHg 92%
02:00 +6°C° 0 mm 2 m/s 749 mmHg 93%
03:00 +5°C° 0 mm 2 m/s 749 mmHg 91%
04:00 +5°C° 0 mm 2 m/s 749 mmHg 89%
05:00 +5°C° 0 mm 2 m/s 749 mmHg 87%
06:00 +7°C° 0 mm 2 m/s 750 mmHg 80%
07:00 +8°C° 0 mm 3 m/s 750 mmHg 73%
08:00 +10°C° 0 mm 3 m/s 750 mmHg 66%
09:00 +11°C° 0 mm 3 m/s 750 mmHg 62%
10:00 +13°C° 0 mm 4 m/s 750 mmHg 58%
11:00 +14°C° 0 mm 4 m/s 750 mmHg 53%
12:00 +16°C° 0 mm 3 m/s 750 mmHg 51%
13:00 +16°C° 0 mm 3 m/s 749 mmHg 49%
14:00 +17°C° 0 mm 3 m/s 749 mmHg 47%
15:00 +17°C° 0 mm 3 m/s 749 mmHg 50%
16:00 +17°C° 0 mm 3 m/s 749 mmHg 53%
17:00 +17°C° 0 mm 2 m/s 749 mmHg 55%
18:00 +15°C° 0 mm 2 m/s 749 mmHg 61%
19:00 +14°C° 0 mm 2 m/s 749 mmHg 66%
20:00 +12°C° 0 mm 2 m/s 749 mmHg 72%
21:00 +10°C° 0 mm 2 m/s 749 mmHg 73%
22:00 +10°C° 0 mm 3 m/s 748 mmHg 75%
23:00 +9°C° 0 mm 3 m/s 748 mmHg 76%

22 Mai, Sâmbătă

Timp Temperatura Precipitaţii Vânt Presiune Umiditate
00:00 +9°C° 0 mm 3 m/s 748 mmHg 77%
01:00 +9°C° 0 mm 3 m/s 748 mmHg 77%
02:00 +8°C° 0 mm 4 m/s 748 mmHg 77%
03:00 +8°C° 0 mm 4 m/s 747 mmHg 77%
04:00 +8°C° 0 mm 4 m/s 747 mmHg 77%
05:00 +8°C° 0 mm 4 m/s 747 mmHg 77%
06:00 +10°C° 0 mm 5 m/s 747 mmHg 76%
07:00 +12°C° 0 mm 5 m/s 747 mmHg 75%
08:00 +13°C° 0 mm 6 m/s 747 mmHg 73%
09:00 +15°C° 0 mm 6 m/s 747 mmHg 68%
10:00 +16°C° 0 mm 6 m/s 747 mmHg 64%
11:00 +18°C° 0 mm 7 m/s 747 mmHg 59%
12:00 +19°C° 0 mm 6 m/s 746 mmHg 57%
13:00 +20°C° 0 mm 6 m/s 746 mmHg 55%
14:00 +21°C° 0 mm 6 m/s 746 mmHg 53%
15:00 +20°C° 0 mm 6 m/s 745 mmHg 56%
16:00 +20°C° 0 mm 6 m/s 745 mmHg 59%
17:00 +20°C° 0 mm 6 m/s 745 mmHg 62%
18:00 +17°C° 0 mm 6 m/s 744 mmHg 66%
19:00 +16°C° 0 mm 5 m/s 744 mmHg 70%
20:00 +15°C° 0 mm 5 m/s 744 mmHg 75%
21:00 +14°C° 0 mm 5 m/s 743 mmHg 75%
22:00 +14°C° 0 mm 5 m/s 743 mmHg 75%
23:00 +14°C° 0 mm 6 m/s 743 mmHg 75%

23 Mai, Duminică

Timp Temperatura Precipitaţii Vânt Presiune Umiditate
00:00 +13°C° 0.8 mm 6 m/s 742 mmHg 81%
01:00 +13°C° 0.8 mm 5 m/s 742 mmHg 87%
02:00 +12°C° 0.8 mm 5 m/s 741 mmHg 93%
03:00 +12°C° 0.9 mm 5 m/s 741 mmHg 94%
04:00 +12°C° 0.9 mm 5 m/s 741 mmHg 95%
05:00 +12°C° 0.9 mm 5 m/s 740 mmHg 96%
06:00 +12°C° 1 mm 5 m/s 740 mmHg 95%
07:00 +12°C° 1 mm 5 m/s 741 mmHg 94%
08:00 +12°C° 1 mm 5 m/s 741 mmHg 93%
09:00 +13°C° 0.3 mm 5 m/s 741 mmHg 86%
10:00 +14°C° 0.3 mm 5 m/s 742 mmHg 78%
11:00 +15°C° 0.3 mm 5 m/s 742 mmHg 70%
12:00 +14°C° 0.6 mm 5 m/s 742 mmHg 75%
13:00 +13°C° 0.6 mm 4 m/s 743 mmHg 80%
14:00 +12°C° 0.6 mm 3 m/s 743 mmHg 85%
15:00 +13°C° 0.3 mm 3 m/s 743 mmHg 82%
16:00 +14°C° 0.3 mm 3 m/s 744 mmHg 78%
17:00 +14°C° 0.3 mm 3 m/s 744 mmHg 75%
18:00 +13°C° 0.2 mm 3 m/s 744 mmHg 79%
19:00 +13°C° 0.2 mm 2 m/s 744 mmHg 83%
20:00 +12°C° 0.2 mm 2 m/s 745 mmHg 87%
21:00 +10°C° 0 mm 2 m/s 745 mmHg 89%
22:00 +9°C° 0 mm 2 m/s 746 mmHg 90%
23:00 +10°C° 0 mm 1 m/s 746 mmHg 91%

24 Mai, Luni

Timp Temperatura Precipitaţii Vânt Presiune Umiditate
00:00 +9°C° 0 mm 1 m/s 746 mmHg 92%
01:00 +9°C° 0 mm 1 m/s 746 mmHg 92%
02:00 +8°C° 0 mm 1 m/s 746 mmHg 92%
03:00 +7°C° 0.1 mm 2 m/s 747 mmHg 94%
04:00 +7°C° 0.1 mm 2 m/s 747 mmHg 95%
05:00 +8°C° 0.1 mm 3 m/s 747 mmHg 97%
06:00 +9°C° 0.1 mm 3 m/s 747 mmHg 92%
07:00 +10°C° 0.1 mm 4 m/s 748 mmHg 87%
08:00 +10°C° 0.1 mm 5 m/s 748 mmHg 82%
09:00 +10°C° 0.1 mm 5 m/s 748 mmHg 76%
10:00 +11°C° 0.1 mm 6 m/s 749 mmHg 70%
11:00 +13°C° 0.1 mm 6 m/s 749 mmHg 64%
12:00 +13°C° 0.2 mm 6 m/s 749 mmHg 62%
13:00 +13°C° 0.2 mm 6 m/s 749 mmHg 60%
14:00 +13°C° 0.2 mm 6 m/s 749 mmHg 57%
15:00 +13°C° 0.2 mm 6 m/s 749 mmHg 62%
16:00 +13°C° 0.2 mm 6 m/s 749 mmHg 67%
17:00 +13°C° 0.2 mm 6 m/s 749 mmHg 71%
18:00 +12°C° 0.3 mm 5 m/s 749 mmHg 77%
19:00 +9°C° 0.3 mm 5 m/s 750 mmHg 84%
20:00 +8°C° 0.3 mm 4 m/s 750 mmHg 90%
21:00 +8°C° 0 mm 4 m/s 750 mmHg 92%
22:00 +7°C° 0 mm 4 m/s 750 mmHg 94%
23:00 +6°C° 0 mm 4 m/s 751 mmHg 96%
Arată mai mult

Formular de consimțământ

Meteoprog și furnizorii noștri de servicii pot stoca și accesa date personale, precum cookies, identificatori de dispozitiv sau alte tehnologii similare pe dispozitivul dumneavoastră și procesa astfel de date pentru a personaliza conținutul și reclamele, dar și pentru a oferi caracteristici de social media și pentru a analiza traficul.

  • Stocarea și/sau accesarea informațiilor pe dispozitivul dumneavoastră

    Cookies, identificatori de dispozitiv sau alte informații pot fi stocate sau accesate pe dispozitiv în scopurile indicate mai sus.

  • Reclame și conținut personalizat, evaluarea reclamelor și a conținutului, informații despre audiențe și dezvoltarea produselor

    Reclamele și conținutul pot fi personalizate pe baza unui profil. Pot fi adăugate date suplimentare pentru a personaliza mai bine reclamele și conținutul. Performanța reclamelor și conținutului poate fi măsurată. Pot fi obținute informații despre utilizatorii care au văzut reclamele și conținutul. Aceste date pot fi utilizate pentru a dezvolta sau îmbunătăți experiența utilizatorilor, sistemele și software-ul.

Dând clic pe ‘Sunt de acord’, permiteți utilizarea cookie-urilor menționate, a identificatorilor de dispozitiv, balizelor web sau altor tehnologii similare. Setările pot fi modificate din browser-ul dispozitivului dumneavoastră.

În anumite scopuri, interesele legitime pot prima asupra consimțământului. Puteți citi mai multe informații în acest sens în Politica privind Confidențialitatea Datelor și Cookie.